星链-32751 (STARLINK-32751)

导读

STARLINK-32751是美国太空探索技术公司(SpaceX)星链互联网卫星星座中的一颗卫星,于2025年1月21日由美国发射升空。星链项目旨在构建全球卫星互联网,为全球用户提供高速低延迟宽带服务,这颗卫星加入星座后,进一步拓展了星链网络的全球覆盖能力。

基本信息
目录编号:
62753
目录名称:
STARLINK-32751
国际标识:
2025-014U
轨道中心:
EARTH
卫星名称:
星链-32751
卫星全名:
星链-32751 (STARLINK-32751)
卫星状态:
在轨 (已飞行592 天)
发射日期:
2025-01-21 UTC
国别 :
美国 (US)
星等 :
--
轨道信息
数据来源 国际轨道数据
星历时间: 2026-09-05T05:55:15+0800
9小时前
查看轨道信息
半长轴: 6861.16km
偏心率: 0.0000492
轨道倾角: 43.000°
近地点辐角 301.076°
升交点赤经 222.544°
平近点角 59.005°
近地点: 482.685km
远地点: 483.361km
周期: 94.266分钟
每日圈数: 15.275889
详细信息
固有亮度:
5
最大亮度:
2.5
卫星平台:
Starlink V1.0
覆盖范围:
全球
运营商:
太空探索技术公司
运营商所在国:
美国
制造商(研发单位):
太空探索技术公司
制造商所在国:
美国
使用方式:
暂无
卫星简介
Starlink 计划是 SpaceX 推出的全球卫星互联网项目,通过发射低轨道卫星,为全球尤其是偏远地区提供高速、低延迟的互联网服务。自 2019 年起,Starlink 已部署数千颗卫星,旨在缩小全球数字鸿沟,推动互联网普及。该项目还为军事、航空等行业提供通信支持,带来广泛经济效益。
2D轨道图
3D轨道图
轨道高度分析图
轨道倾角分析图
轨道综合分析图
查看轨道综合分析图
交会数据列表
事件ID 空间交会对象 最接近时刻(TCA) 交会距离 交会风险概率(CRP) 交会风险指数(CRI) 操作
CDM_260907-134605-708506-275321
2026-09-07T
13:46:06+0000
0.943 km
远距离
1.574103E-5 中风险 0.59
CDM_260906-121106-275306-455822
QUICK3 (64558)
2026-09-06T
12:11:43+0000
1.374 km
极远距离
8.682934E-6 低风险 0.54
CDM_260907-152005-708506-275321
2026-09-07T
15:20:15+0000
1.299 km
极远距离
5.253729E-6 低风险 0.49
CDM_260901-151305-745006-275321
2026-09-01T
15:13:47+0000
1.458 km
极远距离
4.689711E-6 低风险 0.48
CDM_260907-121105-708506-275321
2026-09-07T
12:11:56+0000
2.894 km
极远距离
7.725145E-7 极低风险 0.33